Location: St. Louis
(38.6270°N, 90.1994°W)
Time: 19:56:57
(UTC-06:00)

Vanguard 1 - Pass Details

Date: 04 December 2021
Orbit: 652 x 3830 km, 34.2° (Epoch: 21 January)

Event Time Altitude Azimuth Distance (km) Brightness Sun altitude
Exits shadow 06:07:05 11° 279° (W) 6,380 13.5 -10.8°
Maximum altitude 06:23:23 39° 221° (SW) 3,327 12.6 -7.8°
Drops below altitude 10° 06:33:32 10° 157° (SSE) 3,968 13.9 -6.0°
Sets 06:36:21 0° 149° (SSE) 4,606 14.6 -5.5°
